CAPE
1747 1745 1742 1686 1599 1490 1477 1480 1648 1704 1755 1752 1739 1848 1708 1433 1373 1391 1350 1536 1369 1416 1440 1445 1515 1551 1712 1602 1586 1366 1294 1257 1163 1085 1115 1121 1070 1070 990 1050 976 898 996 1065 1066 1147 838 656 985 1408 1274 1558 1109 743 631 622 570 484 429 521 498 454
1713 1694 1640 1524 1491 1437 1341 1358 1517 1614 1600 1578 1509 1292 1384 1366 1304 1361 1323 1273 1349 1353 1381 1424 1497 1710 1452 1657 1323 1326 1302 1224 1083 1075 1103 1014 1005 953 951 956 894 911 875 781 844 252 539 573 824 1282 1164 964 863 896 769 584 533 450 444 410 474 832
1690 1644 1564 1515 1531 1428 1240 1303 1429 1495 1498 1476 1415 1441 1408 1291 1331 1321 1256 1225 1241 1298 1357 1416 1372 1483 1565 1436 1419 1295 1206 1155 1084 1021 1046 990 970 841 806 797 802 808 797 550 15 0 282 391 818 837 1129 834 828 876 725 555 452 495 495 416 629 921
1634 1588 1529 1530 1450 1242 1121 1195 1302 1395 1518 1472 1396 1329 1213 1176 1229 1268 1169 1089 1119 1223 1305 1297 1649 1679 1686 1382 1305 1250 1124 1065 1060 1035 1070 1178 965 875 741 628 488 347 155 172 201 171 0 279 783 819 895 841 816 785 651 482 496 562 475 751 708 838
1543 1481 1465 1424 1309 1171 1058 1212 1242 1304 1320 1304 1205 1096 1090 1025 1043 1191 1089 920 1009 1118 1174 1265 1271 1240 1268 1254 1223 1138 1058 904 875 939 685 610 662 617 386 290 90 110 164 191 210 227 234 393 765 794 845 857 809 687 542 498 512 517 520 690 894 1156
1478 1346 1334 1339 1250 1065 1145 1246 1233 1174 1129 1093 950 857 854 926 956 950 836 816 897 999 1139 1216 1214 1272 1225 1235 1107 1093 1048 917 873 802 723 600 503 406 283 249 251 252 214 195 217 243 215 432 737 715 734 763 899 699 556 500 516 480 634 773 1070 1062
1421 1209 1150 1354 1126 1163 1280 1276 1211 1090 1026 1008 846 750 753 843 789 696 725 725 813 943 1051 1182 1215 1205 1174 1186 1135 1106 1096 989 935 876 768 581 457 225 20 140 265 273 208 228 245 226 151 430 688 650 627 628 829 811 638 541 548 612 717 822 952 883
1284 1103 1178 1244 1042 1267 1280 1171 1077 1100 945 909 830 748 678 644 584 538 523 615 756 890 968 1070 1197 1110 1125 1135 1103 1114 1060 1041 963 780 618 531 4 1 10 12 160 236 245 236 226 184 140 296 629 639 553 547 741 711 650 587 574 680 755 844 859 1200
1176 1092 1248 969 1034 1184 1042 948 1008 989 1000 1056 855 763 700 594 534 538 511 617 726 817 890 1015 1108 992 1021 1016 1001 1003 958 873 840 673 503 183 0 0 0 4 43 276 225 215 179 144 146 171 268 381 509 567 696 634 564 652 722 742 856 1052 1025 1304
1090 1077 871 866 987 907 862 999 974 972 1122 1018 953 891 799 609 582 642 617 566 648 739 833 981 1013 941 965 968 949 903 817 707 626 514 182 0 0 0 0 0 32 286 204 161 160 118 162 232 279 308 444 602 668 662 617 762 803 844 958 954 771 961
1068 849 867 916 774 747 888 1010 1035 1078 1119 999 986 949 820 639 635 745 733 713 656 654 693 899 980 946 967 1006 965 856 754 684 546 442 184 0 324 305 1 0 1 12 23 1 0 2 60 258 312 368 554 660 735 756 762 827 848 838 776 576 672 733
752 680 752 721 729 809 908 956 1032 1122 1043 971 951 894 782 675 715 774 815 818 698 664 694 703 824 829 774 733 765 722 658 606 493 494 421 616 524 484 113 212 416 189 42 0 0 0 0 224 321 463 596 652 643 632 785 880 840 722 698 662 684 752
655 678 623 618 762 842 844 928 1075 1083 1035 951 949 865 750 692 730 764 821 830 744 701 768 736 712 653 636 624 586 531 524 639 607 722 825 774 559 586 543 365 196 66 2 0 0 0 30 118 106 216 360 429 554 698 787 800 726 693 660 636 641 661
741 720 662 657 769 868 856 901 1074 1090 1084 1083 1008 909 810 760 750 759 786 826 810 748 754 725 718 725 737 654 589 550 656 650 742 968 1069 861 546 498 486 261 48 52 232 0 0 0 20 65 233 284 380 513 586 691 756 741 716 670 600 603 612 579
887 763 827 734 800 886 913 936 995 1060 1166 1184 1072 968 861 860 913 964 954 932 848 762 763 780 818 879 912 830 700 742 832 789 906 1068 1145 896 623 447 434 384 37 0 0 0 0 43 12 48 284 336 430 555 591 659 752 756 717 572 563 555 542 478
952 885 846 820 855 891 964 1006 1067 1044 1164 1208 1119 989 942 1023 1089 1096 1052 882 738 770 788 828 837 885 924 905 880 926 850 941 1001 1148 1185 1017 669 425 130 55 1 0 0 0 7 0 0 180 301 408 516 641 662 653 712 690 677 587 585 545 515 475
998 961 927 926 922 946 981 1052 1128 1228 1169 1157 1092 965 1058 1149 1193 1165 1140 938 731 750 696 697 944 1021 906 922 966 958 966 1020 1038 1174 1204 1148 876 588 583 128 8 3 0 0 0 0 17 92 204 393 604 726 758 797 839 702 642 648 588 546 506 455
1080 1065 1036 1039 1032 1019 1068 1097 1154 1264 1243 1134 1037 992 1130 1202 1190 1176 1163 1090 899 723 636 660 1015 1084 908 870 958 927 924 1051 1019 1102 1175 1063 1020 756 488 180 128 36 4 0 0 42 184 198 259 312 380 492 581 662 710 642 565 697 660 574 497 476
1228 1192 1170 1170 1150 1127 1155 1209 1216 1268 1258 1110 1016 1016 1138 1148 1135 1155 1172 1058 952 879 749 772 1034 948 789 829 819 876 912 997 918 1032 948 784 884 617 385 467 153 60 3 0 0 124 119 240 270 239 323 390 476 540 589 608 651 740 772 727 711 666
1339 1288 1253 1270 1253 1201 1170 1209 1223 1254 1253 1115 1019 1055 1103 1096 1144 1227 1190 1064 1027 975 785 961 855 763 777 832 919 872 916 886 944 850 855 1006 794 750 723 627 416 64 34 42 0 0 8 79 244 130 252 300 382 546 673 756 739 706 670 848 826 822
1436 1370 1308 1317 1276 1236 1159 1188 1222 1248 1206 1103 1042 1091 1218 1244 1241 1260 1182 1038 1082 990 930 958 1040 983 957 850 902 948 822 857 823 826 822 792 863 874 924 702 101 20 9 7 2 0 0 9 80 52 196 257 328 507 680 728 732 702 735 650 666 537
1560 1447 1397 1341 1256 1224 1223 1211 1223 1252 1087 1016 1055 1137 1298 1364 1330 1205 1034 948 1000 916 922 995 942 877 913 914 866 770 789 778 794 715 697 728 784 945 736 687 353 1 0 0 0 0 0 325 22 145 200 253 275 450 532 673 587 635 608 442 483 685
1612 1537 1449 1311 1095 1152 1246 1260 1213 1150 1064 1027 1109 1298 1402 1413 1320 1146 994 907 884 893 977 928 946 996 969 893 838 786 723 837 832 792 757 747 874 982 878 760 597 111 0 148 0 458 429 43 24 146 353 342 339 358 358 487 440 448 454 501 533 460
1600 1606 1433 1284 1156 1163 1175 1303 1303 1285 1206 1243 1314 1400 1434 1331 1194 1013 987 945 958 1019 1027 1012 1049 1025 962 826 696 647 612 727 908 878 791 839 907 956 847 662 738 557 420 472 464 477 466 381 368 355 385 339 245 301 283 390 360 263 350 302 395 546
1608 1633 1515 1266 1116 1126 1187 1372 1450 1414 1411 1402 1291 1342 1222 1168 1071 1006 928 979 1046 1051 1081 1074 1041 997 887 526 418 250 564 694 852 788 704 825 842 928 942 684 699 586 478 293 414 411 441 433 420 230 11 0 0 113 257 312 267 261 248 159 200 138
1613 1638 1534 1319 1217 1076 1211 1465 1530 1472 1346 1316 1151 1100 1068 1050 979 944 977 1004 1078 1128 1112 1000 928 861 582 380 351 502 707 742 770 737 596 812 833 813 889 704 803 631 477 422 76 335 40 403 428 0 0 0 0 15 0 278 237 19 120 286 131 91
1647 1703 1584 1432 1209 1159 1345 1532 1576 1451 1331 1242 1073 992 996 942 939 950 1017 1005 1111 999 888 767 814 650 586 441 434 585 736 829 877 836 737 812 887 857 702 836 727 656 618 419 376 84 337 24 466 281 0 305 422 31 0 54 158 70 106 181 275 275
1644 1709 1689 1448 1232 1310 1540 1647 1574 1400 1233 1114 994 922 924 913 918 974 981 982 967 878 741 718 672 586 581 510 527 652 806 794 894 862 826 789 912 830 724 781 630 686 581 506 416 277 313 397 450 444 403 466 71 0 0 0 0 8 73 173 144 195
1517 1563 1510 1328 1273 1459 1656 1675 1570 1355 1051 872 825 869 892 885 874 881 831 841 924 848 726 602 495 476 556 645 642 596 710 803 816 797 806 725 822 840 841 674 567 625 536 441 386 389 390 406 413 461 426 420 388 0 0 0 0 0 0 58 126 125
1466 1349 1243 1181 1338 1516 1645 1644 1471 1269 857 736 761 768 768 667 682 662 685 717 869 817 658 504 430 455 491 498 502 504 553 575 590 657 684 653 699 757 814 844 643 692 607 465 452 468 411 383 405 436 414 443 337 0 0 0 0 0 0 0 85 92
1420 1255 1242 1252 1252 1501 1616 1603 1524 1395 903 688 566 603 599 566 556 546 578 615 737 751 595 459 397 382 344 56 0 0 0 181 420 529 569 479 514 626 723 895 779 687 606 366 395 446 465 488 446 375 390 493 374 0 0 14 0 0 0 0 39 103
1365 1328 1334 1230 1456 1681 1685 1636 1587 1465 1092 658 533 613 640 587 520 480 396 464 496 492 348 159 228 273 192 0 0 0 0 0 186 422 484 422 418 599 762 831 789 741 791 687 478 460 436 438 475 495 446 500 420 112 0 0 0 0 0 0 2 37
1440 1430 1436 1484 1650 1728 1662 1645 1569 1242 1014 708 608 694 729 639 505 419 338 277 222 145 120 22 152 211 0 0 0 0 0 0 317 378 388 422 502 589 686 669 775 774 853 796 587 517 126 220 386 504 523 531 444 0 0 0 0 0 0 0 0 0
1510 1430 1430 1442 1500 1502 1487 1408 1297 1126 815 569 540 677 753 678 454 385 306 248 190 162 152 130 144 154 149 0 0 0 150 312 333 368 373 376 442 596 645 678 723 631 615 576 517 441 248 245 286 480 530 584 460 303 0 0 0 0 0 0 0 0
1463 1357 1282 1183 1230 1234 1082 894 782 684 678 722 255 420 598 556 368 282 267 232 188 178 158 132 129 0 0 0 0 0 0 0 120 306 321 332 359 370 406 417 380 377 341 411 430 397 298 235 251 434 540 618 556 389 45 20 0 0 0 0 0 0
1476 1206 1035 939 879 816 762 731 724 738 690 283 157 246 372 296 177 233 271 240 217 56 0 0 0 0 0 0 0 0 0 0 0 0 0 120 326 356 399 439 390 300 352 442 482 346 217 227 256 315 474 597 526 378 308 93 0 0 0 0 0 0
1315 1104 936 821 791 721 764 783 699 584 250 188 209 193 169 188 167 248 282 300 241 0 0 0 0 0 0 0 0 0 0 0 0 0 0 0 0 0 355 452 416 312 331 337 304 261 215 32 194 371 436 448 326 346 262 169 0 0 0 0 0 0
Wind_Speed
29 29 29 28 27 26 27 30 28 30 30 30 29 29 27 27 26 25 26 27 27 22 20 21 23 21 26 22 23 25 25 26 26 25 26 25 22 25 29 25 22 19 17 20 20 22 21 20 17 15 17 21 25 20 17 16 17 17 14 12 11 10
29 30 29 28 26 25 26 28 24 24 23 25 26 26 24 21 24 24 29 26 22 21 20 20 21 23 22 23 24 27 26 26 26 26 27 24 20 22 26 24 23 21 20 21 21 20 20 19 18 16 19 23 22 19 18 17 18 18 15 12 12 11
30 30 31 29 27 27 27 25 25 24 24 28 27 27 26 27 25 25 23 23 22 21 20 20 20 21 22 25 25 28 29 27 24 24 24 21 19 21 24 25 25 24 24 25 nan nan 20 19 14 15 18 20 20 19 19 19 20 20 17 13 13 17
31 31 30 29 29 29 26 24 24 24 25 26 27 27 28 27 25 23 22 22 23 22 21 20 23 26 25 23 25 28 29 25 23 24 22 18 20 23 26 28 29 26 24 23 23 22 nan 20 16 14 17 19 19 19 20 19 20 21 19 15 15 19
31 31 31 30 30 28 25 23 23 23 24 26 26 27 27 26 24 23 23 24 25 24 22 21 21 21 21 21 22 23 23 20 20 21 20 19 20 21 22 23 nan 22 21 22 23 24 25 22 18 16 17 19 20 20 22 22 22 21 20 19 16 18
31 32 31 30 29 27 26 23 23 23 25 25 26 26 25 25 25 25 25 25 25 24 22 21 20 19 19 19 19 19 19 20 20 18 18 20 20 19 20 21 21 21 20 20 22 24 24 22 20 18 19 20 20 21 22 21 21 21 21 20 18 21
31 32 32 30 28 26 24 23 21 22 24 24 25 26 25 25 25 25 24 23 24 22 21 21 20 18 17 15 15 14 14 15 17 15 15 18 19 19 nan 19 19 18 18 20 22 25 23 21 19 20 21 21 22 21 21 20 20 21 21 20 20 23
30 31 30 29 28 25 23 23 22 24 23 24 25 25 24 23 23 23 21 20 20 19 18 18 16 14 14 14 14 13 12 12 12 12 14 16 nan nan nan nan 16 16 17 19 21 22 22 22 21 21 23 24 24 22 20 19 19 19 20 20 20 21
31 32 30 29 27 24 22 21 21 22 22 23 22 21 21 21 20 18 17 17 16 16 14 12 12 12 14 14 13 13 11 10 11 13 14 16 nan nan nan nan nan 15 16 18 19 21 22 22 22 21 23 23 22 19 17 17 18 19 19 20 21 20
32 31 31 29 25 23 21 20 20 20 19 20 18 18 18 17 17 16 14 14 13 12 11 11 12 13 14 14 13 12 11 10 11 12 13 nan nan nan nan nan nan 15 16 16 19 19 21 22 22 21 20 21 20 18 16 16 17 20 20 22 21 21
33 33 31 28 25 22 19 18 18 18 18 18 17 17 16 16 16 14 13 13 11 10 10 12 13 13 14 13 12 12 10 11 12 11 13 nan 14 16 nan nan nan nan nan nan nan nan nan 23 22 20 18 19 18 17 16 17 19 20 21 21 21 22
32 33 32 29 25 22 19 18 17 16 16 17 17 15 15 16 15 13 12 11 9 8 10 11 11 11 12 11 11 11 12 12 12 12 14 14 15 15 14 13 13 14 nan nan nan nan nan 24 22 19 17 17 16 16 17 17 18 18 19 20 22 25
31 31 33 30 26 22 19 17 16 15 16 16 15 15 14 14 13 12 11 11 10 9 9 10 10 10 11 11 11 12 12 11 12 12 14 14 15 13 13 13 12 nan nan nan nan nan nan 23 21 18 17 16 16 16 17 18 16 16 18 19 21 23
29 31 32 29 24 20 18 16 15 15 15 15 13 13 12 12 11 10 11 11 11 9 9 8 10 10 11 11 11 10 10 10 11 11 12 13 11 11 11 12 nan nan 16 nan nan nan nan nan 21 19 18 16 16 16 16 17 15 15 16 17 18 19
28 31 31 27 22 18 16 15 14 14 14 13 12 12 11 11 10 10 11 11 9 7 8 8 9 10 9 10 9 9 8 8 10 9 10 9 10 9 9 10 nan nan nan nan nan nan nan nan 20 20 17 16 16 16 16 15 15 16 17 16 17 18
30 30 30 27 21 17 15 14 14 14 13 11 12 12 11 11 11 11 11 10 8 7 8 8 9 9 9 9 8 8 7 8 9 8 9 9 9 9 8 nan nan nan nan nan nan nan nan 16 18 19 17 16 15 15 15 16 16 16 15 16 16 17
31 31 30 25 18 15 15 14 14 14 12 11 11 12 12 12 12 11 10 9 8 7 8 7 8 9 10 9 9 9 7 8 8 9 10 9 8 8 9 10 nan nan nan nan nan nan nan nan 15 16 18 18 16 14 14 14 15 14 14 15 15 16
29 30 26 19 12 11 11 11 12 15 13 11 12 12 12 12 10 10 9 8 7 6 7 7 8 10 10 7 9 9 8 8 8 9 9 9 8 8 8 7 8 nan nan nan nan nan 12 11 12 14 16 16 15 14 12 13 13 13 13 13 15 14
28 27 21 15 10 10 10 9 10 13 13 12 13 13 12 11 10 9 7 7 6 6 7 8 10 12 7 8 10 9 8 8 8 9 10 9 9 9 9 7 8 nan nan nan nan 9 10 11 12 12 14 14 13 13 12 13 13 12 11 11 12 13
26 25 22 18 14 10 10 9 8 12 14 12 13 12 12 11 9 7 7 7 7 7 7 9 11 8 6 9 10 9 8 8 8 8 9 10 9 9 10 9 7 nan nan nan nan nan nan nan 13 13 13 13 13 12 12 12 14 13 13 12 12 12
22 22 23 21 15 10 9 10 10 9 12 12 11 12 11 12 9 8 7 7 7 8 8 9 8 8 9 10 9 9 8 8 8 8 8 7 9 10 10 9 9 nan nan nan nan nan nan nan nan nan 11 12 13 12 11 11 13 14 15 12 13 13
18 19 22 21 15 10 7 10 12 11 13 13 12 10 10 10 9 8 7 7 7 8 8 8 8 8 9 10 9 9 8 8 8 8 8 8 9 12 13 10 10 nan nan nan nan nan nan 7 nan 8 9 8 10 10 10 11 11 14 15 13 12 12
18 21 22 20 16 11 8 11 11 11 12 14 13 11 11 11 9 8 7 7 7 8 9 9 9 10 10 9 9 9 8 8 8 8 9 10 11 12 13 11 9 10 nan 9 nan 6 6 nan nan 8 9 10 7 8 7 9 10 13 14 13 11 11
19 20 20 17 15 10 9 13 13 12 12 14 12 13 14 13 11 10 7 7 8 8 9 9 9 10 9 9 9 9 9 9 8 8 9 10 11 12 14 13 11 10 10 11 8 4 6 7 6 9 9 8 6 8 8 8 10 11 10 11 11 11
20 19 17 16 14 9 14 18 15 14 13 17 19 16 14 13 10 8 9 8 7 9 10 10 10 10 10 10 9 9 10 9 9 8 9 9 10 11 11 13 12 11 8 10 7 6 5 7 4 7 nan nan nan 8 6 7 8 11 10 10 12 12
21 19 15 15 13 9 14 19 16 13 14 16 18 15 11 9 8 7 5 8 10 9 10 10 9 10 10 10 10 9 10 10 8 8 8 9 10 11 12 13 11 11 9 7 nan 8 nan 6 6 nan nan nan nan nan nan 7 10 nan 10 12 12 nan
18 19 19 16 13 11 16 21 18 14 15 16 16 14 13 11 7 8 11 9 9 9 9 10 9 9 10 11 11 10 11 10 9 8 8 9 9 8 10 10 11 11 9 9 8 nan 5 nan 7 8 nan 9 7 nan nan nan 8 nan 12 11 14 14
17 19 19 15 11 11 15 19 17 15 15 16 14 13 11 11 12 11 11 10 10 9 10 10 10 10 11 12 12 12 12 11 10 7 7 7 7 8 9 9 10 10 11 10 8 7 5 4 7 6 11 10 nan nan nan nan nan nan nan 13 13 14
18 17 16 13 11 13 17 17 14 14 15 14 13 12 13 15 14 15 14 13 11 11 11 10 10 11 12 13 12 12 12 11 10 8 7 6 7 8 8 8 9 10 11 10 8 7 7 5 5 6 11 11 13 nan nan nan nan nan nan nan 15 14
18 16 15 15 12 14 16 15 13 13 13 14 15 16 16 17 17 17 16 14 13 11 10 10 10 12 12 11 12 13 12 10 9 9 8 7 8 8 8 8 8 9 10 11 9 9 8 6 6 8 10 12 13 nan nan nan nan nan nan nan nan nan
17 18 17 15 13 13 15 13 12 11 12 13 14 14 17 18 19 19 17 15 12 11 11 11 12 12 12 nan nan nan nan 10 10 11 10 9 9 10 10 10 10 11 11 12 11 10 8 7 8 8 10 11 12 nan nan nan nan nan nan nan nan 17
16 17 17 16 15 15 15 14 14 11 12 14 13 12 12 13 14 15 15 15 14 15 14 14 14 13 13 nan nan nan nan nan 11 12 11 10 11 12 13 14 14 13 13 12 13 12 11 10 9 9 10 13 12 12 nan nan nan nan nan nan nan nan
7 11 14 16 16 17 16 15 14 13 16 16 13 12 12 13 12 13 13 15 14 15 14 nan 14 15 nan nan nan nan nan nan 13 12 13 14 14 16 17 17 17 17 16 15 14 14 13 11 12 12 11 12 14 nan nan nan nan nan nan nan nan nan
6 7 12 17 18 17 16 16 17 17 19 18 16 14 13 12 11 11 11 13 14 13 14 14 14 14 13 nan nan nan 16 16 15 16 16 16 17 18 19 20 20 20 19 18 18 16 15 15 15 14 14 15 14 15 nan nan nan nan nan nan nan nan
11 7 9 14 16 14 14 17 21 22 22 21 19 16 13 12 13 12 12 14 14 14 15 13 15 nan nan nan nan nan nan nan 18 18 19 19 20 21 21 22 21 21 22 20 19 19 17 17 17 15 14 13 15 15 nan nan nan nan nan nan nan nan
10 6 9 14 16 14 14 16 20 23 25 25 24 21 17 16 15 14 12 12 13 nan nan nan nan nan nan nan nan nan nan nan nan nan nan 19 20 21 22 23 22 23 22 20 21 20 18 17 15 14 13 14 15 15 14 nan nan nan nan nan nan nan
12 10 14 20 23 22 18 18 20 23 24 25 22 19 16 15 15 15 14 13 14 nan nan nan nan nan nan nan nan nan nan nan nan nan nan nan nan nan 21 22 22 22 22 20 20 19 18 nan 14 13 14 14 14 17 16 16 nan nan nan nan nan nan
Wind_Direction
275 278 279 280 281 281 287 289 287 290 292 292 290 287 286 287 284 282 281 279 277 275 274 271 270 267 270 265 267 269 269 272 273 270 265 269 275 280 284 274 265 258 248 246 246 249 248 244 243 248 252 263 273 264 266 263 262 259 252 248 244 240
274 278 279 279 280 279 279 280 275 278 281 286 285 282 280 276 279 274 280 277 275 274 274 274 274 272 267 268 269 271 269 270 271 269 265 262 265 277 279 270 262 259 253 249 244 251 250 246 244 251 257 267 264 264 263 263 263 261 251 244 243 245
275 278 279 279 279 276 275 274 273 275 278 282 278 273 270 272 269 273 274 275 274 275 275 275 273 272 266 273 272 273 273 272 269 270 269 263 260 266 265 260 258 254 251 253 nan nan 255 256 249 248 249 259 263 263 261 258 258 260 257 245 241 263
277 279 278 276 274 275 275 275 274 272 272 271 270 270 272 273 272 273 275 277 279 278 274 274 285 285 276 270 273 275 276 272 269 269 264 253 256 255 251 253 254 253 253 259 262 261 nan 261 260 250 247 254 258 260 261 258 257 259 261 250 244 269
275 277 277 276 277 278 280 279 276 275 274 272 272 272 273 273 275 276 277 280 281 278 274 269 267 265 267 272 270 268 262 251 248 252 256 256 249 241 243 247 nan 250 255 259 261 263 265 264 262 257 253 255 254 250 248 247 250 251 252 252 250 268
274 277 277 277 280 285 287 284 282 279 275 273 274 274 274 276 278 279 281 281 280 277 275 272 271 272 270 271 269 268 263 252 249 255 255 257 253 248 249 250 252 252 252 257 260 263 265 268 268 262 257 254 253 250 248 248 251 252 250 250 253 265
273 275 277 279 282 285 286 285 282 279 278 276 274 276 278 279 281 282 281 281 280 278 276 275 275 270 264 263 270 273 270 260 258 254 253 259 257 257 nan 256 256 255 256 256 255 258 263 264 264 262 257 255 248 247 248 249 248 248 250 251 255 267
276 278 278 282 283 283 285 285 285 283 277 281 278 280 282 283 282 282 279 279 277 276 276 274 269 263 260 265 274 275 269 262 260 256 254 260 nan nan nan nan 257 253 255 257 257 257 259 263 258 256 256 250 247 245 245 248 250 250 254 254 252 259
280 280 280 282 285 286 288 286 283 281 282 285 282 282 284 283 281 278 277 276 274 272 262 262 263 259 263 272 275 273 271 268 266 262 261 258 nan nan nan nan nan 256 254 253 257 257 259 258 252 250 253 251 251 252 251 250 250 251 250 252 254 256
283 283 282 282 285 289 291 288 287 287 287 287 284 284 281 278 277 277 274 270 266 265 266 270 268 266 272 272 270 267 270 272 272 270 267 nan nan nan nan nan nan 258 253 253 256 255 256 255 252 249 249 252 251 252 253 252 248 248 248 251 252 252
282 283 282 284 286 292 294 294 292 288 282 283 282 278 274 270 269 267 264 259 255 258 264 271 275 277 272 273 268 269 271 272 270 270 270 nan 269 274 nan nan nan nan nan nan nan nan nan 257 258 257 252 253 251 249 249 244 241 243 248 251 248 244
281 280 282 284 289 295 299 299 294 287 283 281 279 274 269 267 265 259 252 250 249 257 263 266 274 276 276 273 271 272 269 273 277 278 276 274 276 276 279 274 265 261 nan nan nan nan nan 258 260 260 257 253 249 249 247 243 241 243 248 250 249 242
283 283 285 288 291 296 299 299 296 290 284 281 277 271 268 266 258 251 244 243 243 247 253 270 277 279 275 273 274 273 273 277 278 278 276 276 276 274 273 268 262 nan nan nan nan nan nan 256 258 259 258 251 247 246 245 245 241 243 247 249 249 241
289 289 289 287 290 298 302 298 292 285 279 278 273 267 259 249 244 240 239 237 242 246 253 260 269 264 266 270 271 273 276 276 274 275 273 275 274 279 281 279 nan nan 261 nan nan nan nan nan 253 254 253 244 241 242 245 247 247 245 245 247 248 240
298 293 290 288 296 304 303 296 286 277 273 271 266 256 246 241 239 240 242 244 244 250 252 255 257 263 261 268 268 266 271 274 277 278 276 275 284 284 287 285 nan nan nan nan nan nan nan nan 255 252 243 236 244 246 242 246 242 236 234 236 240 235
300 297 294 294 297 302 297 286 277 273 263 259 254 244 239 244 245 245 245 246 245 245 252 252 255 261 263 261 264 265 270 271 281 271 276 284 288 293 297 nan nan nan nan nan nan nan nan 258 251 246 236 239 246 245 241 239 237 232 230 235 235 235
301 299 298 297 297 300 287 274 271 268 263 253 247 240 240 246 246 242 239 246 248 243 247 249 256 264 271 271 262 261 262 272 274 272 263 275 279 287 300 301 nan nan nan nan nan nan nan nan 257 246 241 248 248 242 239 240 233 228 231 235 232 232
300 295 290 291 300 307 293 266 258 262 260 252 242 240 245 248 245 242 245 248 248 251 251 255 258 257 251 252 262 265 261 263 267 271 268 265 270 284 293 289 291 nan nan nan nan nan 268 260 261 256 248 248 245 238 235 233 223 226 241 249 241 241
299 291 280 283 292 296 286 254 243 255 253 245 239 242 242 240 236 242 250 250 255 268 262 263 257 254 252 262 258 256 260 261 259 270 272 274 272 281 282 281 290 nan nan nan nan 266 269 268 264 258 252 247 241 237 234 224 218 223 235 255 257 256
297 283 270 277 280 286 274 261 244 242 244 236 236 237 230 230 233 241 240 252 262 266 267 268 269 276 280 266 263 265 261 262 266 272 274 276 282 285 289 286 282 nan nan nan nan nan nan nan 264 256 253 246 237 240 237 227 224 226 229 228 231 243
300 284 278 286 285 292 275 244 223 239 242 240 239 230 226 222 225 226 233 246 255 264 264 266 277 279 273 266 266 269 274 268 274 275 279 288 282 281 271 270 268 nan nan nan nan nan nan nan nan nan 248 246 241 235 239 233 228 225 231 221 208 217
293 283 288 295 290 295 272 242 223 228 232 239 241 235 220 216 220 222 230 241 254 264 268 269 267 262 261 264 267 267 269 277 274 279 275 267 265 264 269 266 262 nan nan nan nan nan nan 251 nan 265 275 253 239 232 230 226 217 216 225 228 231 231
275 275 287 291 284 286 250 232 226 222 238 236 226 224 219 215 222 228 228 241 254 264 268 264 262 261 264 260 265 268 273 272 271 276 274 273 267 269 274 270 263 267 nan 226 nan 236 233 nan nan 249 248 248 218 223 198 206 207 211 221 230 233 233
259 260 276 277 266 252 230 217 213 223 230 240 239 229 218 217 218 225 226 230 240 253 258 260 257 256 254 261 271 277 276 275 276 271 280 275 267 270 275 269 260 256 263 258 239 235 227 235 247 273 244 235 229 224 215 205 219 205 208 230 225 224
255 260 263 255 255 247 219 212 220 222 227 232 229 226 226 211 207 208 222 231 242 248 251 250 249 252 258 267 269 275 276 277 274 272 269 269 268 272 270 275 277 274 273 275 263 243 217 230 251 242 nan nan nan 219 211 214 231 213 205 220 217 221
253 251 252 247 258 242 219 222 233 237 229 228 232 232 230 230 209 216 236 234 243 254 256 254 255 258 265 268 272 270 266 269 267 269 272 269 266 265 269 273 283 284 277 267 nan 263 nan 220 247 nan nan nan nan nan nan 231 224 nan 213 224 223 nan
258 250 247 252 257 234 218 223 237 240 229 230 233 214 213 215 221 209 231 245 249 254 260 266 264 267 268 270 271 269 265 263 259 254 250 259 266 273 273 276 279 288 294 282 267 nan 280 nan 235 238 nan 240 246 nan nan nan 234 nan 236 218 222 231
268 261 252 251 243 214 220 225 235 233 230 230 228 222 216 215 208 215 232 241 245 246 250 258 268 270 270 270 270 268 262 257 253 242 241 256 263 259 265 267 280 287 287 292 294 296 293 269 307 261 249 246 nan nan nan nan nan nan nan 248 235 228
285 269 247 232 217 198 211 224 226 225 223 218 225 226 218 212 217 215 225 224 235 241 242 245 257 260 265 270 269 269 261 254 252 247 242 248 249 261 277 276 270 278 286 287 292 285 290 319 296 283 268 255 258 nan nan nan nan nan nan nan 233 240
293 272 246 232 214 201 214 222 219 215 225 220 220 221 222 223 218 218 224 225 229 240 243 242 242 251 260 263 260 259 258 255 252 254 252 263 260 264 266 274 278 279 280 284 276 285 305 305 300 273 275 281 268 nan nan nan nan nan nan nan nan nan
287 269 251 239 224 210 212 208 205 211 224 226 222 227 225 220 221 223 232 230 235 235 234 242 247 246 250 nan nan nan nan 250 246 249 253 260 270 278 281 283 281 276 282 288 286 287 276 277 283 277 273 280 286 nan nan nan nan nan nan nan nan 250
264 258 242 235 228 218 216 199 194 209 216 215 218 215 227 230 229 236 237 239 233 236 233 236 242 247 244 nan nan nan nan nan 248 249 253 257 262 270 275 275 280 281 281 278 276 281 279 281 279 279 270 273 272 263 nan nan nan nan nan nan nan nan
252 235 234 231 231 225 220 204 196 203 208 207 209 214 222 228 223 233 234 237 237 242 246 nan 248 254 nan nan nan nan nan nan 252 251 252 255 259 266 274 277 279 276 276 277 277 276 276 279 282 282 281 269 272 nan nan nan nan nan nan nan nan nan
269 237 228 229 229 227 220 209 200 203 208 210 213 219 225 234 225 222 229 235 240 245 251 255 253 249 247 nan nan nan 253 253 252 253 254 258 261 263 268 274 274 278 278 272 269 269 269 268 268 266 267 275 274 278 nan nan nan nan nan nan nan nan
286 257 236 227 222 219 215 211 204 205 210 211 218 223 229 236 241 234 223 232 230 238 250 250 257 nan nan nan nan nan nan nan 257 260 261 261 259 260 262 263 267 271 267 270 269 267 266 273 274 275 277 283 282 281 nan nan nan nan nan nan nan nan
286 260 233 219 213 211 212 213 210 211 211 213 215 221 229 230 238 245 244 244 241 nan nan nan nan nan nan nan nan nan nan nan nan nan nan 264 263 263 263 266 265 268 269 265 271 270 274 276 278 282 283 275 275 281 286 nan nan nan nan nan nan nan
229 205 220 223 219 207 214 216 214 214 215 214 220 230 239 240 245 248 256 254 253 nan nan nan nan nan nan nan nan nan nan nan nan nan nan nan nan nan 260 262 265 265 267 265 268 273 273 nan 275 276 274 280 282 281 282 275 nan nan nan nan nan nan